Simultaneous Nadir Overpasses (SNOs) Predictions

Prediction of SNOs between AQUA and NPP Satellite Orbit:

Table of predicted SNOs for the next 14.0 days since TLE Epoch: 10/20/2012
Index Date (AQUA) Time (AQUA) Lat,Lon (AQUA) SZA (AQUA ) Date (NPP) Time (NPP) Lat,Lon (NPP) SZA (NPP ) Distance(km) Time Diff (sec)
1 10/22/2012 23:27:06 76.80, 69.73 106.68 10/22/2012 23:26:46 76.79, 69.65 106.71 2.26 20
2 10/23/2012 00:16:15 -77.65,-119.33 74.28 10/23/2012 00:17:12 -77.65,-119.33 74.33 0.20 57
3 10/25/2012 14:54:17 -76.43, 16.70 72.05 10/25/2012 14:53:07 -76.43, 16.72 71.99 0.53 70
4 10/25/2012 15:43:25 77.26,-172.67 107.05 10/25/2012 15:43:32 77.26,-172.64 107.04 0.70 7
5 10/28/2012 07:10:39 -76.77, 133.73 71.55 10/28/2012 07:09:56 -76.77, 133.77 71.52 1.05 43
6 10/28/2012 07:59:48 77.53, -55.69 107.60 10/28/2012 08:00:22 77.54, -55.62 107.56 1.70 34
7 10/30/2012 23:27:03 -76.97,-109.67 70.92 10/30/2012 23:26:47 -76.96,-109.68 70.90 0.36 16
8 10/31/2012 00:16:12 77.72, 60.99 108.24 10/31/2012 00:17:13 77.73, 61.02 108.18 0.68 61
9 11/02/2012 14:54:14 76.53,-162.98 110.39 11/02/2012 14:53:07 76.53,-162.93 110.44 1.35 67




NCC Satellite Simultaneous Nadir Overpasses (SNOs) Prediction Service
